EDT,Max TemperatureF,Mean TemperatureF,Min TemperatureF,Max Dew PointF,MeanDew PointF,Min DewpointF,Max Humidity, Mean Humidity, Min Humidity, Max Sea Level PressureIn, Mean Sea Level PressureIn, Min Sea Level PressureIn, Max VisibilityMiles, Mean VisibilityMiles, Min VisibilityMiles, Max Wind SpeedMPH, Mean Wind SpeedMPH, Max Gust SpeedMPH,PrecipitationIn, CloudCover, Events, WindDirDegrees
2012-9-1,90,82,73,75,73,71,91,74,56,30.06,30.02,29.99,10,8,4,23,5,31,0.41,1,Thunderstorm,273
2012-9-2,84,79,73,75,72,70,94,80,65,30.08,30.03,29.99,10,6,2,12,3,23,0.46,6,Rain-Thunderstorm,114
2012-9-3,86,80,73,75,73,72,87,76,65,30.08,30.05,30.03,10,4,1,10,5,24,0.01,5,Rain,113
2012-9-4,,,,,,,,,,,,,,,,,,,,,,
2012-9-5,87,81,75,,,,,,,,,,,,,,,,,,,
2012-9-6,78,72,66,,,,,,,,,,,,,16,,23,2.39,,,
2012-9-7,87,75,62,,,,,,,,,,,,,10,,14,0.00,,,
2012-9-8,,,,,,,,,,,,,,,,,,,,,,
2012-9-9,,,,,,,,,,,,,,,,,,,,,,
2012-9-10,78,67,56,,,,,,,,,,,,,17,7,23,0.00,,,
2012-9-11,78,64,50,,,,,,,,,,,,,13,3,17,0.00,,,
2012-9-12,81,66,51,,,,,,,,,,,,,10,2,15,0.00,,,
2012-9-13,83,69,54,64,60,55,87,65,42,30.39,30.33,30.29,10,10,10,12,2,17,0.00,2,,113
2012-9-14,84,70,56,64,60,52,86,65,43,30.26,30.20,30.14,10,10,10,12,3,15,0.00,1,,112
2012-9-15,79,66,53,63,53,46,90,62,33,30.17,30.14,30.10,10,10,10,16,10,28,0.00,0,,328
2012-9-16,78,65,52,57,53,48,88,64,39,30.16,30.13,30.09,10,10,10,13,3,17,0.00,1,,251
2012-9-17,80,67,54,63,60,54,83,69,57,30.14,30.09,30.04,10,10,10,10,3,16,T,6,,161
2012-9-18,80,75,70,72,69,66,0,77,66,29.89,29.78,29.71,10,9,1,28,13,40,0.49,6,Rain-Thunderstorm,182
2012-9-19,76,67,57,55,51,46,86,61,36,30.17,30.09,29.95,10,10,10,15,6,23,0.00,2,,1
2012-9-20,78,66,54,57,53,48,84,61,38,30.18,30.13,30.08,10,10,10,10,3,14,0.00,1,,52
2012-9-21,81,67,52,63,57,49,93,66,39,30.10,30.05,30.01,10,10,10,15,3,23,0.00,0,,118
2012-9-22,84,72,59,68,64,55,93,72,51,30.00,29.90,29.84,10,10,10,21,8,25,0.02,1,,184
2012-9-23,73,62,50,62,47,41,83,57,31,30.16,30.08,29.94,10,10,10,17,7,23,T,2,,346
2012-9-24,72,60,47,46,42,36,86,58,29,30.23,30.18,30.15,10,10,10,13,3,18,0.00,0,,308
2012-9-25,76,61,46,55,49,41,86,61,36,30.25,30.21,30.16,10,10,10,16,6,22,0.00,0,,177
2012-9-26,83,73,63,64,60,56,87,67,47,30.18,30.15,30.11,10,10,10,17,8,24,0.00,1,,198
2012-9-27,85,75,64,67,63,61,93,71,48,30.19,30.14,30.11,10,9,5,13,4,18,0.00,0,,147
2012-9-28,85,74,62,67,63,61,93,71,48,30.11,30.03,29.96,10,5,1,14,4,17,0.81,4,Rain,236
2012-9-29,69,62,54,59,55,50,90,71,51,30.00,29.96,29.93,10,9,2,12,3,14,0.13,5,Rain,297
2012-9-30,74,62,50,56,50,46,93,66,38,29.91,29.88,29.83,10,10,8,14,4,22,0.00,1,,234